Regional Weather Roundup
Issued by NWS

Home | Current Version | Previous Version | Graphics & Text | Print | Product List | Glossary On
Versions: 1 2 3 4 5 6 7 8 9 10 11 12 13 14 15 16 17 18 19 20 21 22 23 24 25 26 27 28 29 30 31 32 33 34 35 36 37 38 39 40 41 42 43 44 45 46 47 48 49 50
000
ASUS43 KDTX 132301
RWRMI
MICHIGAN HOURLY REGIONAL WEATHER ROUNDUP
NATIONAL WEATHER SERVICE DETROIT/PONTIAC MI
600 PM EST WED DEC 13 2017

NOTE: "FAIR" INDICATES FEW OR NO CLOUDS BELOW 12,000 FEET WITH NO
SIGNIFICANT WEATHER AND/OR OBSTRUCTION TO VISIBILITY.

MIZ047>049-052>055-059>063-066>070-074>076-081>083-140000-
SOUTHEAST LOWER MICHIGAN

CITY           SKY/WX    TMP DP  RH WIND       PRES   REMARKS
ADRIAN         LGT SNOW  21  19  92 SE8       29.40F FOG     WCI  11
ANN ARBOR      LGT SNOW  21  19  92 E9        29.42F VSB 3/4 WCI  11
BAD AXE        LGT SNOW  18  16  89 NE5       29.54R WCI  11
CARO           LGT SNOW  18  16  90 E7        29.50S VSB 1   WCI   9
DETROIT CITY   SNOW      22  20  92 SE10      29.48F VSB 1/2 WCI  11
DETROIT        SNOW      24  20  84 SE10      29.47F VSB 1/2 WCI  14
FLINT          LGT SNOW  20  17  88 E9        29.45F VSB 3/4 WCI   9
GROSSE ILE     LGT SNOW  24  21  89 SE15G22   29.46F VSB 1   WCI  11
HILLSDALE      LGT SNOW  23  19  86 E9G16     29.32F WCI  13
HOWELL         LGT SNOW  21  20  96 E9        29.41F VSB 3/4 WCI  10

CITY           SKY/WX    TMP DP  RH WIND       PRES   REMARKS
JACKSON        SNOW      21  17  84 E13       29.36F VSB 1/2 WCI   9
LAMBERTVILLE   LGT SNOW  23  20  89 SE5       29.44S WCI  16
LANSING        SNOW      19  17  92 E10       29.40F VSB 1/2 WCI   7
LAPEER         LGT SNOW  19  16  91 E5        29.48S VSB 3/4 WCI  12
MASON          LGT SNOW  21  16  82 SE9G16    29.38F WCI  11
MONROE         LGT SNOW  23  19  86 SE8       29.44F WCI  14
MT. CLEMENS    HVY SNOW  23  22  99 E12       29.47S VSB 1/8 WCI  11
PONTIAC        HVY SNOW  20  19  96 E7        29.43F VSB 1/4 WCI  11
PORT HOPE        N/A     22  18  85 E10       29.53R WCI  11
PORT HURON     LGT SNOW  18  14  86 MISG      29.52R VSB 3/4
TRI CITIES     LGT SNOW  18  16  92 NE13      29.50S VSB 3/4 WCI   5
MIDLAND        LGT SNOW  19  16  88 E12       29.50S VSB 1   WCI   7
TROY           HVY SNOW  23  21  92 E3        29.48F VSB 1/4
SAGINAW HB     LGT SNOW  19  18  93 E10       29.50R VSB 1   WCI   8
$$
MIZ043>046-050>051-056>058-064>065-071>073-077>080-140000-
SOUTHWEST LOWER MICHIGAN

CITY           SKY/WX    TMP DP  RH WIND       PRES   REMARKS
BATTLE CREEK   LGT SNOW  22  20  92 E12       29.32F VSB 1   WCI  10
BENTON HARBOR  LGT SNOW  34  30  85 NW13G23   29.29R FOG     WCI  25
BIG RAPIDS     LGT SNOW  18  14  87 E10       29.44R WCI   6
COLDWATER      LGT SNOW  25  24  96 SE7       29.31F WCI  17
FREMONT        LGT SNOW  19  17  92 E13G18    29.40R WCI   7
HOLLAND        SNOW      22  18  85 E10       29.35R VSB 1/2 WCI  11
GRAND RAPIDS   LGT SNOW  20  16  84 E15       29.37S FOG     WCI   6
IONIA          LGT SNOW  19  17  90 NE13      29.39S WCI   6
KALAMAZOO      LGT SNOW  24  21  88 E6        29.31F VSB 3/4 WCI  17
LUDINGTON      LGT SNOW  19  16  87 NE13      29.46R WCI   6
MARSHALL       LGT SNOW  22  20  95 E6        29.33F WCI  14
MOUNT PLEASANT LGT SNOW  19  15  84 NE12      29.47R WCI   7
MUSKEGON       LGT SNOW  21  15  78 E13       29.39R VSB 3/4 WCI   9
SOUTH HAVEN    LGT SNOW  27  24  89 E7        29.30R WCI  19
$$
MIZ016>042-140000-
NORTHERN LOWER MICHIGAN

CITY           SKY/WX    TMP DP  RH WIND       PRES   REMARKS
ALPENA         FLURRIES  16  13  88 NW7       29.59R WCI   6
BEAVER ISLAND  FLURRIES  17  13  84 NE7       29.65R WCI   8
BELLAIRE       LGT SNOW  15  14  92 N6        29.61R WCI   7
CADILLAC       LGT SNOW  14  11  88 NE12G17   29.46R WCI   0
CHARLEVOIX     LGT SNOW  17  12  82 NE10      29.64R WCI   4
FRANKFORT      LGT SNOW  19  16  85 NE9G20    29.55R WCI   9
GAYLORD        LGT SNOW  11   7  84 NE8       29.54R FOG     WCI  -1
GRAYLING       LGT SNOW  14  10  83 NE10      29.55R WCI   1
HARBOR SPRINGS CLOUDY    15   8  75 NE5       29.61R WCI   7
HOUGHTON LAKE  LGT SNOW  14  11  87 NE13      29.51R VSB 1   WCI   0
MANISTEE       LGT SNOW  18  15  88 NE13G23   29.50R FOG     WCI   5
OSCODA         LGT SNOW  20  15  81 NE8       29.56R WCI  10
PELLSTON       LGT SNOW  16  12  84 N5        29.63R FOG     WCI   9
ROGERS CITY    LGT SNOW  18  14  83 NE13      29.62R WCI   5
TRAVERSE CITY  LGT SNOW  17  13  84 NE15      29.57R VSB 1   WCI   2
$$
MIZ007>008-015-140000-
EASTERN UPPER MICHIGAN

CITY           SKY/WX    TMP DP  RH WIND       PRES   REMARKS
KINROSS        CLOUDY     2  -2  83 N6        29.67R WCI  -9
MACKINAC ISLAN CLOUDY    13   9  83 NE13      29.65R WCI  -1
NEWBERRY       CLOUDY     4   2  91 N5        29.67R WCI  -5
S. S. MARIE    CLOUDY     5  -2  72 CALM      29.68R
MUNISING         N/A     15  11  83 E6        29.70R WCI   6
$$
MIZ004>006-011>014-085-140000-
CENTRAL UPPER MICHIGAN

CITY           SKY/WX    TMP DP  RH WIND       PRES   REMARKS
MANISTIQUE     CLOUDY     8  -3  60 N9        29.68R WCI  -6
ESCANABA       CLOUDY    14   7  73 N8        29.68R WCI   3
MENOMINEE      LGT SNOW  19  16  88 N14G23    29.63R FOG     WCI   6
SAWYER-GWINN   LGT SNOW  14  12  92 NE7       29.65R VSB 1   WCI   4
$$
MIZ001>003-009>011-084-140000-
WESTERN UPPER MICHIGAN

CITY           SKY/WX    TMP DP  RH WIND       PRES   REMARKS
IRON MOUNTAIN  LGT SNOW  16  11  80 N10       29.63R WCI   4
HOUGHTON       CLOUDY    16  10  77 N9        29.71R WCI   4
COPPER HARBOR    N/A     20  15  81 NE18G28   29.75R WCI   5
IRONWOOD       FLURRIES  18  14  84 NE7       29.71R WCI   9
$$

ABBREVIATIONS USED IN REMARKS
   TC - TEMPERATURE IN CELSIUS
  WCI - WIND CHILL INDEX
   HX - HEAT INDEX
  VSB - VISIBILITY





USA.gov is the U.S. government's official web portal to all federal, state and local government web resources and services.